Location: Prague
(50.0830°N, 14.4670°E)
Time: 03:17:54
(UTC+02:00)

FO-29 - Pass Details

Date: 07 April 2023
Orbit: 799 x 1322 km, 98.5° (Epoch: 29 May)

Event Time Altitude Azimuth Distance (km) Brightness Sun altitude
Rises 03:55:50 0° 26° (NNE) 4,203 14.0 -22.2°
Reaches altitude 10° 04:01:07 10° 57° (ENE) 3,116 13.3 -21.6°
Maximum altitude 04:03:24 12° 76° (ENE) 2,935 12.9 -21.3°
Drops below altitude 10° 04:05:36 10° 95° (E) 2,995 12.6 -21.0°
Sets 04:10:20 0° 126° (SE) 3,807 12.8 -20.5°
